{"data":{"norad_id":66751,"epoch":"2026-09-20T22:28:46.405344Z","epoch_age_seconds":79730,"freshness":"FRESH","line1":"1 66751U 25276CP  26263.93664821  .00001638  00000+0  84867-4 0  9999","line2":"2 66751  97.4124 335.4026 0003637  28.7533 331.3900 15.17570744 44934","mean_motion":15.17570744,"eccentricity":0.0003637,"inclination_deg":97.4124,"raan_deg":335.4026,"arg_perigee_deg":28.7533,"mean_anomaly_deg":331.39,"bstar":8.4867e-5,"rev_number":4493,"period_min":94.888492394395,"perigee_km":510.67864681319,"apogee_km":515.691394451,"semimajor_km":6891.3220206321,"source":"CELESTRAK","updated_at":"2026-09-21T09:00:16.179784Z"}}